sat.trackr.live / text

‹ back to catalog

STARLINK-32509

NORAD 62042 · 2024-216L

PAYLOAD ACTIVE UNKNOWN

§ Identity

Operator
Country
US
Launch date
2024-11-21
Launch site
AFETR
Launch vehicle
Mass (kg)
RCS (m²)

Purposes: comms

External: N2YO · Heavens-Above · Gunter

§ Orbital elements

Epoch: 2026-05-24T12:39:14.039712Z

Period
94.27 min
Inclination
43.0004°
Eccentricity
0.0001666
Mean motion
15.27591602 rev/d
Perigee alt
481.9 km
Apogee alt
484.2 km
Semi-major
6,861.2 km
B*
7.6683e-4
RAAN
188.0641°
Arg perigee
273.6146°
Mean anomaly
86.4515°
Rev number
8,547

§ Raw data

STARLINK-325091 62042U 24216L   26144.52724583  .00020907  00000+0  76683-3 0  99922 62042  43.0004 188.0641 0001666 273.6146  86.4515 15.27591602 85474

JSON: /api/v1/satellites/62042 · /tle

For live sub-satellite position, see the globe view (requires WebGL).

§ Visibility from observer

Set your observer location to see the next 7 days of passes ≥ 10°. The values pass through the URL so the page stays shareable.

No JS? Fill the form by hand. The geolocation button needs JavaScript.